Time,TemperatureF,DewpointF,PressureIn,WindDirection,WindDirectionDegrees,WindSpeedMPH,WindSpeedGustMPH,Humidity,HourlyPrecipIn,Conditions,Clouds,dailyrainin,SoftwareType,DateUTC
2013-01-08 00:04:00,-999.0,-99.9,30.24,North,-999,-999.0,-999.0,-999,0.00,,,0.00,weatherlink.com 1.10,2013-01-08 05:04:00,
2013-01-08 00:19:00,-999.0,-99.9,30.23,North,-999,-999.0,-999.0,-999,0.00,,,0.00,weatherlink.com 1.10,2013-01-08 05:19:00,
2013-01-08 00:34:00,-999.0,-99.9,30.24,North,-999,-999.0,-999.0,-999,0.00,,,0.00,weatherlink.com 1.10,2013-01-08 05:34:00,
2013-01-08 00:49:00,-999.0,-99.9,30.25,North,-999,-999.0,-999.0,-999,0.00,,,0.00,weatherlink.com 1.10,2013-01-08 05:49:00,
2013-01-08 01:04:00,-999.0,-99.9,30.25,North,-999,-999.0,-999.0,-999,0.00,,,0.00,weatherlink.com 1.10,2013-01-08 06:04:00,
2013-01-08 01:19:00,-999.0,-99.9,30.25,North,-999,-999.0,-999.0,-999,0.00,,,0.00,weatherlink.com 1.10,2013-01-08 06:19:00,
2013-01-08 01:34:00,-999.0,-99.9,30.26,North,-999,-999.0,-999.0,-999,0.00,,,0.00,weatherlink.com 1.10,2013-01-08 06:34:00,
2013-01-08 01:49:00,-999.0,-99.9,30.26,North,-999,-999.0,-999.0,-999,0.00,,,0.00,weatherlink.com 1.10,2013-01-08 06:49:00,
2013-01-08 02:04:00,-999.0,-99.9,30.27,North,-999,-999.0,-999.0,-999,0.00,,,0.00,weatherlink.com 1.10,2013-01-08 07:04:00,
2013-01-08 02:19:00,-999.0,-99.9,30.27,North,-999,-999.0,-999.0,-999,0.00,,,0.00,weatherlink.com 1.10,2013-01-08 07:19:00,
2013-01-08 02:34:00,-999.0,-99.9,30.27,North,-999,-999.0,-999.0,-999,0.00,,,0.00,weatherlink.com 1.10,2013-01-08 07:34:00,
2013-01-08 02:49:00,-999.0,-99.9,30.26,North,-999,-999.0,-999.0,-999,0.00,,,0.00,weatherlink.com 1.10,2013-01-08 07:49:00,
2013-01-08 03:05:00,-999.0,-99.9,30.26,North,-999,-999.0,-999.0,-999,0.00,,,0.00,weatherlink.com 1.10,2013-01-08 08:05:00,
2013-01-08 03:20:00,-999.0,-99.9,30.25,North,-999,-999.0,-999.0,-999,0.00,,,0.00,weatherlink.com 1.10,2013-01-08 08:20:00,
2013-01-08 03:35:00,-999.0,-99.9,30.25,North,-999,-999.0,-999.0,-999,0.00,,,0.00,weatherlink.com 1.10,2013-01-08 08:35:00,
2013-01-08 03:50:00,-999.0,-99.9,30.26,North,-999,-999.0,-999.0,-999,0.00,,,0.00,weatherlink.com 1.10,2013-01-08 08:50:00,
2013-01-08 04:05:00,-999.0,-99.9,30.26,North,-999,-999.0,-999.0,-999,0.00,,,0.00,weatherlink.com 1.10,2013-01-08 09:05:00,
2013-01-08 04:20:00,-999.0,-99.9,30.26,North,-999,-999.0,-999.0,-999,0.00,,,0.00,weatherlink.com 1.10,2013-01-08 09:20:00,
2013-01-08 04:35:00,-999.0,-99.9,30.26,North,-999,-999.0,-999.0,-999,0.00,,,0.00,weatherlink.com 1.10,2013-01-08 09:35:00,
2013-01-08 04:50:00,-999.0,-99.9,30.26,North,-999,-999.0,-999.0,-999,0.00,,,0.00,weatherlink.com 1.10,2013-01-08 09:50:00,
2013-01-08 05:05:00,-999.0,-99.9,30.25,North,-999,-999.0,-999.0,-999,0.00,,,0.00,weatherlink.com 1.10,2013-01-08 10:05:00,
2013-01-08 05:20:00,-999.0,-99.9,30.26,North,-999,-999.0,-999.0,-999,0.00,,,0.00,weatherlink.com 1.10,2013-01-08 10:20:00,
2013-01-08 05:35:00,-999.0,-99.9,30.26,North,-999,-999.0,-999.0,-999,0.00,,,0.00,weatherlink.com 1.10,2013-01-08 10:35:00,
2013-01-08 05:50:00,-999.0,-99.9,30.26,North,-999,-999.0,-999.0,-999,0.00,,,0.00,weatherlink.com 1.10,2013-01-08 10:50:00,
2013-01-08 06:05:00,-999.0,-99.9,30.26,North,-999,-999.0,-999.0,-999,0.00,,,0.00,weatherlink.com 1.10,2013-01-08 11:05:00,
2013-01-08 06:20:00,-999.0,-99.9,30.26,North,-999,-999.0,-999.0,-999,0.00,,,0.00,weatherlink.com 1.10,2013-01-08 11:20:00,
2013-01-08 06:36:00,-999.0,-99.9,30.27,North,-999,-999.0,-999.0,-999,0.00,,,0.00,weatherlink.com 1.10,2013-01-08 11:36:00,
2013-01-08 06:51:00,-999.0,-99.9,30.27,North,-999,-999.0,-999.0,-999,0.00,,,0.00,weatherlink.com 1.10,2013-01-08 11:51:00,
2013-01-08 07:06:00,-999.0,-99.9,30.27,North,-999,-999.0,-999.0,-999,0.00,,,0.00,weatherlink.com 1.10,2013-01-08 12:06:00,
2013-01-08 07:21:00,-999.0,-99.9,30.28,North,-999,-999.0,-999.0,-999,0.00,,,0.00,weatherlink.com 1.10,2013-01-08 12:21:00,
2013-01-08 07:36:00,-999.0,-99.9,30.29,North,-999,-999.0,-999.0,-999,0.00,,,0.00,weatherlink.com 1.10,2013-01-08 12:36:00,
2013-01-08 07:51:00,-999.0,-99.9,30.29,North,-999,-999.0,-999.0,-999,0.00,,,0.00,weatherlink.com 1.10,2013-01-08 12:51:00,
2013-01-08 08:06:00,-999.0,-99.9,30.30,North,-999,-999.0,-999.0,-999,0.00,,,0.00,weatherlink.com 1.10,2013-01-08 13:06:00,
2013-01-08 08:23:00,-999.0,-99.9,30.31,North,-999,-999.0,-999.0,-999,0.00,,,0.00,weatherlink.com 1.10,2013-01-08 13:23:00,
2013-01-08 08:36:00,29.0,27.0,30.32,North,360,0.0,0.0,93,0.00,,,0.00,weatherlink.com 1.10,2013-01-08 13:36:00,
2013-01-08 08:51:00,30.6,28.0,30.32,North,360,0.0,0.0,90,0.00,,,0.00,weatherlink.com 1.10,2013-01-08 13:51:00,
2013-01-08 09:06:00,32.7,30.0,30.32,North,360,0.0,0.0,89,0.00,,,0.00,weatherlink.com 1.10,2013-01-08 14:06:00,
2013-01-08 09:21:00,34.8,31.0,30.32,North,360,2.0,6.0,85,0.00,,,0.00,weatherlink.com 1.10,2013-01-08 14:21:00,
2013-01-08 09:36:00,36.7,32.0,30.32,North,360,5.0,10.0,82,0.00,,,0.00,weatherlink.com 1.10,2013-01-08 14:36:00,
2013-01-08 09:51:00,38.2,33.0,30.32,North,360,6.0,9.0,80,0.00,,,0.00,weatherlink.com 1.10,2013-01-08 14:51:00,
2013-01-08 10:07:00,39.5,34.0,30.32,North,360,4.0,11.0,79,0.00,,,0.00,weatherlink.com 1.10,2013-01-08 15:07:00,
2013-01-08 10:37:00,42.4,35.0,30.33,North,360,5.0,11.0,76,0.00,,,0.00,weatherlink.com 1.10,2013-01-08 15:37:00,
2013-01-08 10:52:00,43.7,36.0,30.32,North,360,6.0,10.0,74,0.00,,,0.00,weatherlink.com 1.10,2013-01-08 15:52:00,
2013-01-08 11:07:00,46.7,38.0,30.31,North,360,11.0,16.0,71,0.00,,,0.00,weatherlink.com 1.10,2013-01-08 16:07:00,
2013-01-08 11:22:00,48.2,37.0,30.32,North,360,10.0,21.0,66,0.00,,,0.00,weatherlink.com 1.10,2013-01-08 16:22:00,
2013-01-08 11:37:00,47.4,37.0,30.31,North,360,8.0,18.0,67,0.00,,,0.00,weatherlink.com 1.10,2013-01-08 16:37:00,
2013-01-08 11:52:00,46.9,37.0,30.30,North,360,10.0,19.0,68,0.00,,,0.00,weatherlink.com 1.10,2013-01-08 16:52:00,
2013-01-08 12:08:00,48.6,38.0,30.29,North,360,5.0,16.0,66,0.00,,,0.00,weatherlink.com 1.10,2013-01-08 17:08:00,
2013-01-08 12:22:00,48.9,38.0,30.27,North,360,9.0,19.0,65,0.00,,,0.00,weatherlink.com 1.10,2013-01-08 17:22:00,
2013-01-08 12:37:00,50.4,39.0,30.26,North,360,11.0,12.0,65,0.00,,,0.00,weatherlink.com 1.10,2013-01-08 17:37:00,
2013-01-08 12:52:00,50.6,38.0,30.27,North,360,15.0,21.0,62,0.00,,,0.00,weatherlink.com 1.10,2013-01-08 17:52:00,
2013-01-08 13:07:00,51.2,39.0,30.26,North,360,8.0,19.0,63,0.00,,,0.00,weatherlink.com 1.10,2013-01-08 18:07:00,
2013-01-08 13:22:00,51.5,38.0,30.25,North,360,13.0,20.0,61,0.00,,,0.00,weatherlink.com 1.10,2013-01-08 18:22:00,
2013-01-08 13:37:00,51.8,39.0,30.25,North,360,9.0,17.0,61,0.00,,,0.00,weatherlink.com 1.10,2013-01-08 18:37:00,
2013-01-08 13:52:00,51.8,38.0,30.24,North,360,11.0,19.0,60,0.00,,,0.00,weatherlink.com 1.10,2013-01-08 18:52:00,
2013-01-08 14:07:00,52.2,38.0,30.24,North,360,10.0,19.0,60,0.00,,,0.00,weatherlink.com 1.10,2013-01-08 19:07:00,
2013-01-08 14:22:00,52.3,39.0,30.24,North,360,10.0,16.0,60,0.00,,,0.00,weatherlink.com 1.10,2013-01-08 19:22:00,
2013-01-08 14:37:00,52.8,39.0,30.23,North,360,12.0,12.0,60,0.00,,,0.00,weatherlink.com 1.10,2013-01-08 19:37:00,
2013-01-08 14:53:00,52.6,39.0,30.23,North,360,4.0,14.0,60,0.00,,,0.00,weatherlink.com 1.10,2013-01-08 19:53:00,
2013-01-08 15:07:00,53.0,39.0,30.23,North,360,11.0,13.0,59,0.00,,,0.00,weatherlink.com 1.10,2013-01-08 20:07:00,
2013-01-08 15:22:00,53.2,39.0,30.23,North,360,2.0,13.0,60,0.00,,,0.00,weatherlink.com 1.10,2013-01-08 20:22:00,
2013-01-08 15:37:00,53.2,39.0,30.23,North,360,10.0,14.0,58,0.00,,,0.00,weatherlink.com 1.10,2013-01-08 20:37:00,
2013-01-08 15:52:00,52.8,39.0,30.23,North,360,9.0,14.0,59,0.00,,,0.00,weatherlink.com 1.10,2013-01-08 20:52:00,
2013-01-08 16:07:00,52.7,39.0,30.23,North,360,0.0,11.0,60,0.00,,,0.00,weatherlink.com 1.10,2013-01-08 21:07:00,
2013-01-08 16:22:00,53.0,40.0,30.22,North,360,1.0,10.0,61,0.00,,,0.00,weatherlink.com 1.10,2013-01-08 21:22:00,
2013-01-08 16:37:00,53.0,40.0,30.22,North,360,2.0,7.0,61,0.00,,,0.00,weatherlink.com 1.10,2013-01-08 21:37:00,
2013-01-08 16:52:00,52.6,40.0,30.22,North,360,0.0,7.0,62,0.00,,,0.00,weatherlink.com 1.10,2013-01-08 21:52:00,
2013-01-08 17:07:00,52.1,39.0,30.22,North,360,0.0,1.0,62,0.00,,,0.00,weatherlink.com 1.10,2013-01-08 22:07:00,
2013-01-08 17:22:00,51.8,39.0,30.21,North,360,0.0,1.0,62,0.00,,,0.00,weatherlink.com 1.10,2013-01-08 22:22:00,
2013-01-08 17:37:00,-999.0,-99.9,30.21,North,-999,-999.0,-999.0,-999,0.00,,,0.00,weatherlink.com 1.10,2013-01-08 22:37:00,
2013-01-08 17:53:00,-999.0,-99.9,30.21,North,-999,-999.0,-999.0,-999,0.00,,,0.00,weatherlink.com 1.10,2013-01-08 22:53:00,
2013-01-08 18:08:00,-999.0,-99.9,30.22,North,-999,-999.0,-999.0,-999,0.00,,,0.00,weatherlink.com 1.10,2013-01-08 23:08:00,
2013-01-08 18:23:00,-999.0,-99.9,30.22,North,-999,-999.0,-999.0,-999,0.00,,,0.00,weatherlink.com 1.10,2013-01-08 23:23:00,
2013-01-08 18:38:00,-999.0,-99.9,30.22,North,-999,-999.0,-999.0,-999,0.00,,,0.00,weatherlink.com 1.10,2013-01-08 23:38:00,
2013-01-08 18:53:00,-999.0,-99.9,30.22,North,-999,-999.0,-999.0,-999,0.00,,,0.00,weatherlink.com 1.10,2013-01-08 23:53:00,
2013-01-08 19:08:00,-999.0,-99.9,30.22,North,-999,-999.0,-999.0,-999,0.00,,,0.00,weatherlink.com 1.10,2013-01-09 00:08:00,
2013-01-08 19:23:00,-999.0,-99.9,30.23,North,-999,-999.0,-999.0,-999,0.00,,,0.00,weatherlink.com 1.10,2013-01-09 00:23:00,
2013-01-08 19:38:00,-999.0,-99.9,30.23,North,-999,-999.0,-999.0,-999,0.00,,,0.00,weatherlink.com 1.10,2013-01-09 00:38:00,
2013-01-08 19:53:00,-999.0,-99.9,30.22,North,-999,-999.0,-999.0,-999,0.00,,,0.00,weatherlink.com 1.10,2013-01-09 00:53:00,
2013-01-08 20:08:00,-999.0,-99.9,30.22,North,-999,-999.0,-999.0,-999,0.00,,,0.00,weatherlink.com 1.10,2013-01-09 01:08:00,
2013-01-08 20:23:00,-999.0,-99.9,30.21,North,-999,-999.0,-999.0,-999,0.00,,,0.00,weatherlink.com 1.10,2013-01-09 01:23:00,
2013-01-08 20:38:00,-999.0,-99.9,30.21,North,-999,-999.0,-999.0,-999,0.00,,,0.00,weatherlink.com 1.10,2013-01-09 01:38:00,
2013-01-08 20:53:00,-999.0,-99.9,30.21,North,-999,-999.0,-999.0,-999,0.00,,,0.00,weatherlink.com 1.10,2013-01-09 01:53:00,
2013-01-08 21:09:00,-999.0,-99.9,30.20,North,-999,-999.0,-999.0,-999,0.00,,,0.00,weatherlink.com 1.10,2013-01-09 02:09:00,
2013-01-08 21:24:00,-999.0,-99.9,30.21,North,-999,-999.0,-999.0,-999,0.00,,,0.00,weatherlink.com 1.10,2013-01-09 02:24:00,
2013-01-08 21:39:00,-999.0,-99.9,30.21,North,-999,-999.0,-999.0,-999,0.00,,,0.00,weatherlink.com 1.10,2013-01-09 02:39:00,
2013-01-08 21:54:00,-999.0,-99.9,30.20,North,-999,-999.0,-999.0,-999,0.00,,,0.00,weatherlink.com 1.10,2013-01-09 02:54:00,
2013-01-08 22:24:00,-999.0,-99.9,30.21,North,-999,-999.0,-999.0,-999,0.00,,,0.00,weatherlink.com 1.10,2013-01-09 03:24:00,
2013-01-08 22:39:00,-999.0,-99.9,30.21,North,-999,-999.0,-999.0,-999,0.00,,,0.00,weatherlink.com 1.10,2013-01-09 03:39:00,
2013-01-08 22:54:00,-999.0,-99.9,30.22,North,-999,-999.0,-999.0,-999,0.00,,,0.00,weatherlink.com 1.10,2013-01-09 03:54:00,
2013-01-08 23:09:00,-999.0,-99.9,30.22,North,-999,-999.0,-999.0,-999,0.00,,,0.00,weatherlink.com 1.10,2013-01-09 04:09:00,
2013-01-08 23:24:00,-999.0,-99.9,30.21,North,-999,-999.0,-999.0,-999,0.00,,,0.00,weatherlink.com 1.10,2013-01-09 04:24:00,
2013-01-08 23:39:00,-999.0,-99.9,30.21,North,-999,-999.0,-999.0,-999,0.00,,,0.00,weatherlink.com 1.10,2013-01-09 04:39:00,